Simultaneous Nadir Overpasses (SNOs) Predictions

Prediction of SNOs between LANDSAT-8 and METOP-B Satellite Orbit:

Table of predicted SNOs for the next 14.0 days since TLE Epoch: 7/13/2024
Index Date (LANDSAT-8) Time (LANDSAT-8) Lat,Lon (LANDSAT-8) SZA (LANDSAT-8 ) Date (METOP-B) Time (METOP-B) Lat,Lon (METOP-B) SZA (METOP-B ) Distance(km) Time Diff (sec)
1 07/13/2024 18:19:35 -81.37, 129.34 117.91 07/13/2024 18:18:59 -81.37, 129.20 117.94 2.41 36
2 07/13/2024 19:09:01 81.38, -62.84 62.13 07/13/2024 19:09:38 81.38, -62.79 62.15 0.76 37
3 07/16/2024 13:53:54 -81.37,-164.19 117.46 07/16/2024 13:53:28 -81.37,-164.31 117.48 2.01 26
4 07/16/2024 14:43:20 81.38, 3.61 62.57 07/16/2024 14:44:07 81.38, 3.67 62.60 1.16 47
5 07/19/2024 09:28:11 -81.37, -97.71 116.96 07/19/2024 09:27:55 -81.38, -97.51 116.94 3.27 16
6
